• In Hungary
  • List of Countries
  • For 7 days
  • Water Temperature
  • Satellite Maps
  • Weather Map
  • News
  • Weather Widgets
  • user-avatar
    Login

    Hourly Weather Ko Lipe

    Today, 18 January, Thursday

    Time Temperature Precipitation Wind Pressure Humidity
    00:00 +29°C° 0.2 mm 4 mps 755 mmHg 78%
    01:00 +29°C° 0 mm 4 mps 756 mmHg 78%
    02:00 +29°C° 0 mm 4 mps 755 mmHg 78%
    03:00 +29°C° 0 mm 4 mps 755 mmHg 78%
    04:00 +29°C° 0 mm 5 mps 755 mmHg 78%
    05:00 +29°C° 0 mm 5 mps 755 mmHg 78%
    06:00 +29°C° 0 mm 5 mps 755 mmHg 79%
    07:00 +29°C° 0 mm 5 mps 755 mmHg 79%
    08:00 +29°C° 0 mm 5 mps 755 mmHg 78%
    09:00 +29°C° 0 mm 5 mps 756 mmHg 78%
    10:00 +29°C° 0 mm 5 mps 756 mmHg 78%
    11:00 +29°C° 0 mm 4 mps 756 mmHg 75%
    12:00 +30°C° 0 mm 3 mps 755 mmHg 73%
    13:00 +30°C° 0 mm 2 mps 755 mmHg 70%
    14:00 +30°C° 0.2 mm 2 mps 755 mmHg 70%
    15:00 +30°C° 0.2 mm 2 mps 754 mmHg 70%
    16:00 +30°C° 0.2 mm 2 mps 754 mmHg 70%
    17:00 +30°C° 0.1 mm 2 mps 754 mmHg 71%
    18:00 +30°C° 0.1 mm 3 mps 754 mmHg 72%
    19:00 +30°C° 0.1 mm 4 mps 755 mmHg 73%
    20:00 +30°C° 0 mm 4 mps 755 mmHg 74%
    21:00 +30°C° 0 mm 5 mps 755 mmHg 75%
    22:00 +30°C° 0 mm 5 mps 756 mmHg 76%
    23:00 +30°C° 0 mm 5 mps 756 mmHg 77%

    Tomorrow, 19 January, Friday

    Time Temperature Precipitation Wind Pressure Humidity
    00:00 +29°C° 0 mm 5 mps 756 mmHg 77%
    01:00 +29°C° 0 mm 5 mps 756 mmHg 78%
    02:00 +29°C° 0.1 mm 5 mps 756 mmHg 78%
    03:00 +29°C° 0.1 mm 5 mps 755 mmHg 78%
    04:00 +29°C° 0.1 mm 5 mps 755 mmHg 78%
    05:00 +29°C° 0.4 mm 5 mps 755 mmHg 78%
    06:00 +29°C° 0.4 mm 5 mps 755 mmHg 78%
    07:00 +29°C° 0.4 mm 5 mps 755 mmHg 78%
    08:00 +29°C° 0.5 mm 5 mps 756 mmHg 76%
    09:00 +29°C° 0.5 mm 5 mps 756 mmHg 75%
    10:00 +29°C° 0.5 mm 5 mps 756 mmHg 73%
    11:00 +30°C° 0.3 mm 4 mps 756 mmHg 72%
    12:00 +30°C° 0.3 mm 3 mps 756 mmHg 70%
    13:00 +30°C° 0.3 mm 3 mps 755 mmHg 68%
    14:00 +30°C° 0.5 mm 3 mps 755 mmHg 68%
    15:00 +30°C° 0.5 mm 3 mps 754 mmHg 69%
    16:00 +30°C° 0.5 mm 3 mps 753 mmHg 69%
    17:00 +30°C° 1.4 mm 4 mps 754 mmHg 71%
    18:00 +30°C° 1.4 mm 4 mps 754 mmHg 73%
    19:00 +30°C° 1.4 mm 5 mps 754 mmHg 74%
    20:00 +30°C° 0.8 mm 5 mps 755 mmHg 75%
    21:00 +30°C° 0.8 mm 5 mps 756 mmHg 75%
    22:00 +30°C° 0.8 mm 6 mps 756 mmHg 76%
    23:00 +30°C° 0.3 mm 6 mps 756 mmHg 76%

    Day after tomorrow, 20 January, Saturday

    Time Temperature Precipitation Wind Pressure Humidity
    00:00 +29°C° 0.3 mm 6 mps 756 mmHg 76%
    01:00 +29°C° 0.3 mm 6 mps 755 mmHg 76%
    02:00 +29°C° 0.1 mm 6 mps 755 mmHg 76%
    03:00 +29°C° 0.1 mm 6 mps 754 mmHg 76%
    04:00 +29°C° 0.1 mm 6 mps 754 mmHg 76%
    05:00 +29°C° 0.2 mm 6 mps 754 mmHg 76%
    06:00 +29°C° 0.2 mm 6 mps 754 mmHg 76%
    07:00 +29°C° 0.2 mm 6 mps 755 mmHg 76%
    08:00 +29°C° 0 mm 6 mps 755 mmHg 76%
    09:00 +29°C° 0 mm 6 mps 755 mmHg 76%
    10:00 +29°C° 0 mm 6 mps 756 mmHg 77%
    11:00 +30°C° 0.6 mm 6 mps 755 mmHg 76%
    12:00 +30°C° 0.6 mm 5 mps 755 mmHg 76%
    13:00 +30°C° 0.6 mm 5 mps 754 mmHg 75%
    14:00 +30°C° 2.3 mm 5 mps 753 mmHg 75%
    15:00 +30°C° 2.3 mm 5 mps 753 mmHg 75%
    16:00 +30°C° 2.3 mm 5 mps 752 mmHg 74%
    17:00 +30°C° 2.4 mm 6 mps 753 mmHg 75%
    18:00 +30°C° 2.4 mm 6 mps 753 mmHg 75%
    19:00 +30°C° 2.4 mm 6 mps 754 mmHg 76%
    20:00 +30°C° 1.8 mm 7 mps 754 mmHg 76%
    21:00 +30°C° 1.8 mm 7 mps 755 mmHg 77%
    22:00 +30°C° 1.8 mm 7 mps 755 mmHg 78%
    23:00 +29°C° 1.1 mm 7 mps 755 mmHg 79%

    21 January, Sunday

    Time Temperature Precipitation Wind Pressure Humidity
    00:00 +29°C° 1.1 mm 7 mps 755 mmHg 79%
    01:00 +29°C° 1.1 mm 7 mps 754 mmHg 80%
    02:00 +29°C° 1.2 mm 7 mps 754 mmHg 80%
    03:00 +29°C° 1.2 mm 8 mps 753 mmHg 80%
    04:00 +29°C° 1.2 mm 8 mps 753 mmHg 80%
    05:00 +29°C° 1.2 mm 8 mps 753 mmHg 80%
    06:00 +29°C° 1.2 mm 8 mps 754 mmHg 80%
    07:00 +29°C° 1.2 mm 8 mps 754 mmHg 80%
    08:00 +29°C° 0.8 mm 7 mps 755 mmHg 79%
    09:00 +29°C° 0.8 mm 7 mps 755 mmHg 78%
    10:00 +30°C° 0.8 mm 7 mps 756 mmHg 78%
    11:00 +30°C° 0.4 mm 6 mps 755 mmHg 76%
    12:00 +30°C° 0.4 mm 5 mps 755 mmHg 75%
    13:00 +30°C° 0.4 mm 4 mps 754 mmHg 74%
    14:00 +30°C° 1.5 mm 4 mps 753 mmHg 73%
    15:00 +30°C° 1.5 mm 3 mps 752 mmHg 72%
    16:00 +30°C° 1.5 mm 3 mps 752 mmHg 72%
    17:00 +30°C° 1.2 mm 3 mps 752 mmHg 72%
    18:00 +30°C° 1.2 mm 4 mps 753 mmHg 73%
    19:00 +30°C° 1.2 mm 4 mps 754 mmHg 73%
    20:00 +30°C° 0.3 mm 4 mps 754 mmHg 75%
    21:00 +30°C° 0.3 mm 5 mps 755 mmHg 76%
    22:00 +30°C° 0.3 mm 5 mps 755 mmHg 77%
    23:00 +30°C° 1.1 mm 5 mps 755 mmHg 78%

    22 January, Monday

    Time Temperature Precipitation Wind Pressure Humidity
    00:00 +29°C° 1.1 mm 6 mps 755 mmHg 79%
    01:00 +29°C° 1.1 mm 6 mps 754 mmHg 80%
    02:00 +29°C° 2 mm 6 mps 754 mmHg 80%
    03:00 +29°C° 2 mm 6 mps 753 mmHg 80%
    04:00 +29°C° 2 mm 6 mps 753 mmHg 79%
    05:00 +29°C° 1.9 mm 5 mps 753 mmHg 79%
    06:00 +29°C° 1.9 mm 5 mps 754 mmHg 79%
    07:00 +29°C° 1.9 mm 5 mps 754 mmHg 78%
    08:00 +29°C° 1.1 mm 4 mps 755 mmHg 78%
    09:00 +29°C° 1.1 mm 4 mps 755 mmHg 78%
    10:00 +29°C° 1.1 mm 4 mps 756 mmHg 77%
    11:00 +29°C° 1.7 mm 3 mps 755 mmHg 76%
    12:00 +30°C° 1.7 mm 3 mps 754 mmHg 76%
    13:00 +30°C° 1.7 mm 2 mps 754 mmHg 75%
    14:00 +30°C° 1.2 mm 2 mps 753 mmHg 74%
    15:00 +30°C° 1.2 mm 2 mps 753 mmHg 73%
    16:00 +30°C° 1.2 mm 2 mps 752 mmHg 72%
    17:00 +30°C° 0.2 mm 2 mps 753 mmHg 72%
    18:00 +30°C° 0.2 mm 2 mps 753 mmHg 72%
    19:00 +30°C° 0.2 mm 1 mps 754 mmHg 72%
    20:00 +30°C° 0.3 mm 1 mps 754 mmHg 72%
    21:00 +30°C° 0.3 mm 1 mps 755 mmHg 73%
    22:00 +30°C° 0.3 mm 1 mps 755 mmHg 73%
    23:00 +29°C° 0.7 mm 1 mps 755 mmHg 74%

    23 January, Tuesday

    Time Temperature Precipitation Wind Pressure Humidity
    00:00 +29°C° 0.7 mm 1 mps 755 mmHg 75%
    01:00 +29°C° 0.7 mm 1 mps 754 mmHg 75%
    02:00 +29°C° 0.7 mm 1 mps 754 mmHg 75%
    03:00 +29°C° 0.7 mm 2 mps 754 mmHg 75%
    04:00 +29°C° 0.7 mm 2 mps 753 mmHg 75%
    05:00 +29°C° 0.4 mm 2 mps 754 mmHg 75%
    06:00 +29°C° 0.4 mm 2 mps 754 mmHg 75%
    07:00 +29°C° 0.4 mm 2 mps 755 mmHg 75%
    08:00 +29°C° 0 mm 2 mps 755 mmHg 75%
    09:00 +29°C° 0 mm 2 mps 755 mmHg 75%
    10:00 +29°C° 0 mm 2 mps 756 mmHg 75%
    11:00 +29°C° 0 mm 2 mps 755 mmHg 74%
    12:00 +30°C° 0 mm 1 mps 755 mmHg 73%
    13:00 +30°C° 0 mm 1 mps 754 mmHg 72%
    14:00 +30°C° 0 mm 1 mps 754 mmHg 71%
    15:00 +30°C° 0 mm 1 mps 753 mmHg 71%
    16:00 +30°C° 0 mm 1 mps 753 mmHg 71%
    17:00 +30°C° 0 mm 1 mps 753 mmHg 70%
    18:00 +30°C° 0 mm 1 mps 754 mmHg 70%
    19:00 +30°C° 0 mm 1 mps 754 mmHg 69%
    20:00 +30°C° 0 mm 1 mps 754 mmHg 70%
    21:00 +30°C° 0 mm 1 mps 755 mmHg 71%
    22:00 +30°C° 0 mm 2 mps 755 mmHg 72%
    23:00 +30°C° 0 mm 2 mps 755 mmHg 73%
    Show more